Regional Weather Roundup
Issued by NWS

Home | Current Version | Previous Version | Graphics & Text | Print | Product List | Glossary On
Versions: 1 2 3 4 5 6 7 8 9 10 11 12 13 14 15 16 17 18 19 20 21 22 23 24 25 26 27 28 29 30 31 32 33 34 35 36 37 38 39 40 41 42 43 44 45 46 47 48 49 50
000
ASUS43 KFSD 231602
RWRSD

WEATHER ROUNDUP FOR SOUTH DAKOTA
NATIONAL WEATHER SERVICE SIOUX FALLS SD
1100 AM CDT THU OCT 23 2014

NOTE: "FAIR" INDICATES FEW OR NO CLOUDS BELOW 12,000 FEET WITH NO
SIGNIFICANT WEATHER AND/OR OBSTRUCTIONS TO VISIBILITY.


SDZ001>005-009-010-012>017-231700-
NORTHWEST AND NORTH CENTRAL SOUTH DAKOTA

CITY           SKY/WX    TMP DP  RH WIND       PRES   REMARKS
FAITH            N/A     59  32  36 SW7       29.95S
MOBRIDGE       SUNNY     51  40  65 S8        29.93S
$$

SDZ012>016-024>037-041>051-057-063-072>074-231700-
SOUTHWEST AND SOUTH CENTRAL SOUTH DAKOTA

CITY           SKY/WX    TMP DP  RH WIND       PRES   REMARKS
RAPID CTY ARPT PTSUNNY   53  28  38 CALM      29.98F
PIERRE         SUNNY     50  38  63 S6        29.97S
CUSTER         CLOUDY    50  20  30 W9        30.04F
ELLSWORTH AFB  PTSUNNY   55  28  35 SW7       29.97F
PHILIP         SUNNY     53  33  46 W9        29.98S
PINE RIDGE     MOSUNNY   49  36  61 CALM      30.03S
SPEARFISH      FAIR      57  23  26 CALM      29.98S
WINNER         FAIR      58  40  51 SW10      30.00F
$$

SDZ004>011-016>023-039-040-231700-
NORTHEAST SOUTH DAKOTA

CITY           SKY/WX    TMP DP  RH WIND       PRES   REMARKS
ABERDEEN       SUNNY     49  42  77 S9        29.98S
WATERTOWN      SUNNY     49  45  86 SE6       30.00F
SISSETON         N/A     60  41  49 W12       29.96R
$$

SDZ017-020-022-023-036>040-048>070-231700-
SOUTHEAST SOUTH DAKOTA

CITY           SKY/WX    TMP DP  RH WIND       PRES   REMARKS
SIOUX FALLS    MOSUNNY   58  50  75 CALM      30.04S
HURON          SUNNY     51  44  77 SE5       30.00S
CHAMBERLAIN    SUNNY     54  47  76 SW5       30.00S
MITCHELL       SUNNY     53  47  79 S6        30.03S
YANKTON        SUNNY     54  52  94 SW3       30.06S
$$

ABBREVIATIONS USED IN REMARKS
   TC - TEMPERATURE IN CELSIUS
  WCI - WIND CHILL INDEX
   HX - HEAT INDEX
  VSB - VISIBILITY




USA.gov is the U.S. government's official web portal to all federal, state and local government web resources and services.